Dewpoint
41 41 41 41 41 41 41 42 42 42 43 42 42 42 43 43 43 43 43 43 44 45 50 53 54 53 53 52 52 51 50 49 48 46 46 45 45 45 45 44 44 44 47 45 43 43 44 44 43 42 42 42 42 41 40 39 39 40 42 43 43 43 41 41 41 42 42 43 44 44 45 46 45 44 43 43 42 42 43 43 43 43 42 42 41 41 41 41 42 42 42 41 41 42 42 41 40 40 41 41 41 42 42
42 42 42 42 42 43 43 43 44 44 44 45 45 45 45 45 45 45 45 45 46 48 52 52 52 52 52 52 51 50 49 48 47 46 44 43 43 42 42 43 43 42 43 43 42 41 42 41 40 39 40 40 40 40 40 39 39 39 40 42 43 44 43 42 41 41 41 42 43 43 45 46 46 44 43 43 42 42 42 43 43 42 42 41 41 41 41 42 42 44 43 42 41 41 41 41 40 39 39 39 40 41 42
41 41 42 42 43 43 43 43 44 44 44 45 45 46 46 47 47 48 48 49 50 51 51 50 50 49 49 49 49 49 48 47 46 46 44 43 42 41 41 41 42 42 42 42 41 40 41 40 39 38 39 39 39 39 40 40 40 40 40 41 41 41 43 43 43 43 41 41 43 45 44 44 44 44 43 43 42 42 42 42 42 42 42 41 41 41 42 42 43 44 43 42 41 40 40 40 40 39 38 38 38 39 40
39 40 40 41 41 42 42 43 43 44 43 43 44 45 45 46 47 47 48 49 50 49 49 48 47 46 45 44 44 45 45 45 45 43 43 42 42 42 41 41 40 39 40 40 40 40 40 39 39 39 40 40 40 40 41 41 41 40 41 41 41 40 40 41 42 42 41 41 43 46 45 44 44 43 43 43 42 42 42 42 41 41 41 41 40 40 41 41 41 39 40 40 39 39 38 39 39 39 37 37 37 37 37
38 38 39 39 39 39 40 40 40 41 41 41 42 42 43 43 43 44 44 45 45 46 46 46 45 44 43 42 41 41 42 43 43 41 40 40 40 41 41 40 39 39 39 40 40 42 42 42 42 42 41 42 42 43 43 42 42 41 40 40 40 40 40 41 42 42 42 42 42 43 43 43 44 43 43 43 42 42 41 41 40 40 39 38 37 37 38 37 37 37 38 38 38 38 37 37 37 38 37 36 35 34 35
36 36 36 37 37 37 37 38 38 38 39 39 40 40 40 40 40 40 39 39 40 40 41 41 41 41 40 39 39 39 39 41 42 39 39 40 40 41 41 40 40 39 39 40 40 40 42 43 44 44 41 41 40 41 41 41 41 40 40 40 40 40 39 41 42 42 42 42 41 40 41 42 43 43 42 42 42 42 40 39 39 38 37 36 36 35 36 36 36 37 37 37 37 37 37 36 35 36 36 35 34 34 34
36 36 36 36 36 36 36 36 36 37 37 38 38 39 39 38 37 37 37 37 37 37 38 38 38 38 38 38 38 39 39 42 43 41 40 41 43 42 41 40 40 40 40 40 39 39 40 41 41 42 41 41 40 40 39 39 39 39 40 41 41 41 40 41 41 41 41 41 41 41 41 42 42 41 40 41 41 40 39 39 38 38 37 36 35 35 35 35 35 36 36 36 36 36 37 36 35 35 35 35 35 35 36
36 36 36 36 36 36 36 36 36 36 36 36 36 36 36 36 36 36 37 37 37 37 37 37 38 38 38 38 39 39 40 42 42 40 41 43 43 42 40 40 40 41 41 41 42 42 43 43 43 43 41 40 40 40 40 40 40 40 40 40 40 40 42 42 42 42 41 41 41 42 41 40 39 40 40 40 40 39 38 38 37 37 37 37 36 35 35 35 35 36 35 35 36 36 36 36 36 36 36 36 36 36 37
35 36 36 36 36 37 37 37 37 35 35 35 35 36 36 36 36 37 37 37 38 38 38 38 38 39 39 39 39 39 39 40 40 40 41 42 41 39 40 40 40 40 41 41 41 41 40 41 41 39 39 40 41 43 43 44 44 43 42 41 40 40 41 43 43 42 41 40 40 39 39 39 38 38 38 38 38 37 37 37 37 37 37 37 36 36 36 36 36 36 36 37 37 36 36 37 37 38 38 38 38 38 38
35 35 35 36 36 36 36 36 36 35 35 35 36 36 36 36 37 37 38 38 38 38 39 39 39 39 39 39 39 39 39 39 39 40 40 41 41 40 40 40 40 39 39 40 40 39 39 40 40 39 39 39 39 41 41 41 42 42 41 41 40 40 41 41 41 41 40 39 39 39 39 39 38 38 37 37 38 37 37 37 37 37 37 37 37 37 37 38 38 37 37 37 36 37 38 38 39 39 39 39 38 38 37
34 34 34 35 35 35 35 35 35 35 35 35 36 36 36 36 37 37 38 38 39 39 39 39 39 39 39 39 39 39 39 39 40 41 41 41 40 40 40 39 39 39 39 39 39 40 40 40 40 40 40 40 39 39 40 41 42 43 42 42 43 41 40 39 39 38 38 38 38 38 39 39 38 38 37 38 38 38 38 38 37 38 38 38 38 39 39 38 38 38 37 37 37 38 39 39 39 40 40 39 39 38 37
34 34 34 34 34 34 34 35 35 35 35 35 36 36 36 36 37 38 38 39 39 39 39 39 39 39 39 39 39 39 39 39 40 41 41 40 40 40 40 40 39 39 39 39 40 40 39 40 41 42 42 42 41 40 41 43 43 43 43 43 43 42 39 37 36 36 36 37 37 38 38 39 39 38 39 39 38 38 38 38 38 38 39 39 39 39 39 38 38 38 37 37 38 39 40 40 40 40 40 39 39 38 38
33 34 34 34 34 34 34 34 35 35 35 36 36 36 36 36 37 37 38 38 39 39 39 39 39 39 41 41 40 39 39 40 40 40 41 40 40 40 40 40 40 40 40 40 40 40 39 40 40 41 41 42 42 42 42 43 43 42 42 41 41 40 38 36 34 35 36 37 37 38 39 39 39 39 39 39 38 38 38 38 38 39 39 40 40 39 39 39 38 38 37 38 39 40 40 40 40 40 39 39 39 38 38
33 33 34 34 34 34 34 34 35 35 35 35 35 35 36 36 36 37 37 38 39 39 39 39 39 40 41 42 41 40 40 40 40 40 42 42 41 41 41 41 41 41 43 43 41 40 40 40 40 40 41 42 43 42 43 42 41 40 40 39 39 38 37 36 34 34 34 36 37 37 38 39 39 40 39 39 39 38 38 38 38 39 40 40 40 39 39 39 39 38 38 39 40 40 40 40 39 40 39 39 39 39 38
33 33 34 34 34 34 34 34 35 35 35 35 35 35 35 36 36 36 37 37 38 38 39 39 39 39 39 40 41 40 41 42 43 41 43 43 43 43 42 42 41 41 42 42 42 42 42 42 41 41 43 44 44 43 42 40 38 38 37 37 37 37 37 37 35 34 34 34 35 36 35 37 39 40 39 39 39 38 38 38 38 39 40 40 39 39 39 38 38 38 39 39 40 39 39 39 39 39 39 39 39 39 39
34 34 34 34 34 35 35 35 35 35 35 34 34 35 35 35 35 35 35 36 36 37 38 38 37 36 37 38 39 39 40 43 44 42 42 43 44 45 43 42 41 41 40 41 41 43 43 43 42 41 42 43 42 40 39 37 36 36 35 35 36 36 37 37 37 35 33 32 32 34 33 34 36 39 39 38 38 38 37 37 37 39 39 39 39 39 38 38 39 39 40 39 39 39 39 39 39 38 38 39 39 39 39
34 34 34 35 35 35 36 36 36 36 35 35 35 35 36 35 34 34 35 35 35 36 37 37 36 34 34 35 36 37 38 39 40 39 38 39 39 41 40 39 39 39 40 40 40 41 42 41 40 40 39 39 38 37 37 36 34 34 34 34 34 35 36 36 36 36 34 33 32 34 32 33 34 37 37 37 37 38 38 38 38 39 39 39 38 38 38 39 39 39 39 40 39 39 39 39 39 39 38 39 39 39 39
34 35 35 35 35 36 36 36 36 37 37 36 36 36 36 35 34 34 34 35 35 35 35 35 35 33 33 33 33 34 34 35 35 35 35 36 36 37 38 37 37 39 39 40 40 41 40 39 39 38 37 36 35 36 35 34 34 33 34 34 34 34 35 36 36 36 36 35 34 35 33 34 34 35 34 36 37 38 38 38 38 39 39 39 38 38 38 39 39 39 39 39 39 39 39 39 39 39 38 39 39 39 39
35 35 36 36 36 36 36 36 37 37 37 37 37 36 35 35 34 34 34 34 35 35 35 35 35 34 34 34 34 33 34 34 35 35 35 35 36 36 36 37 37 38 39 40 40 41 39 38 37 36 35 35 35 34 34 34 33 33 33 34 34 35 36 36 36 36 36 36 35 35 34 34 34 34 34 35 37 38 37 37 37 38 38 38 38 38 39 39 39 39 39 39 39 39 39 39 39 39 38 39 39 39 39
35 35 36 36 36 37 37 37 37 37 37 37 37 37 36 35 35 34 34 34 35 36 36 36 35 35 34 34 34 34 34 34 35 35 35 35 35 36 37 37 38 39 39 40 41 41 39 37 36 36 35 35 35 34 34 34 34 33 34 35 36 36 36 36 37 37 36 36 35 35 35 35 35 34 35 36 37 37 37 37 37 38 38 38 38 38 38 39 39 39 39 39 39 39 39 38 38 39 39 39 39 39 40
35 35 35 36 36 36 37 37 37 37 37 37 37 37 37 36 36 35 35 35 36 37 37 37 36 35 35 35 35 35 34 35 35 35 35 35 36 36 37 38 39 39 39 40 41 41 39 38 37 36 36 36 35 35 35 35 34 34 35 36 36 36 36 36 37 36 36 36 35 35 35 35 35 34 36 37 37 37 38 38 38 37 37 37 38 38 38 38 39 39 39 39 39 39 38 38 38 39 39 39 39 39 40
34 35 35 35 36 36 36 37 37 37 37 37 37 37 37 37 37 36 36 36 37 38 38 37 36 36 36 36 36 35 35 35 35 35 34 35 35 36 36 36 37 38 39 39 38 39 39 39 38 38 37 36 36 36 36 36 35 35 35 35 36 36 36 36 36 35 35 35 35 35 35 35 36 35 35 36 37 37 38 38 38 37 37 37 38 38 38 39 39 39 39 39 39 38 38 38 39 39 39 39 39 40 40
34 35 35 35 36 36 36 37 37 37 38 38 38 38 38 38 37 37 37 37 37 38 38 38 37 36 36 36 36 36 35 35 34 34 34 34 34 34 34 34 36 38 40 39 38 40 40 40 39 39 38 37 37 37 36 36 36 36 36 36 36 36 36 36 35 35 35 35 35 35 35 35 35 35 36 36 36 37 38 38 37 37 37 37 38 38 39 39 39 39 39 39 38 38 38 38 39 39 39 39 40 40 40
34 35 35 35 36 36 36 37 37 38 38 39 39 39 39 39 38 38 38 38 39 39 39 37 36 37 37 37 36 36 35 34 34 34 34 34 34 34 34 34 35 38 39 40 40 41 40 40 40 39 39 39 38 38 37 37 38 37 37 37 37 37 36 35 35 34 34 35 35 35 35 35 35 36 36 37 37 38 38 38 37 37 37 37 37 38 39 39 39 39 39 39 39 39 39 39 39 39 40 40 40 40 40
34 34 35 35 35 36 36 37 38 39 39 39 40 40 40 40 39 39 39 39 39 39 39 38 37 37 37 36 36 35 34 34 34 34 34 34 34 34 34 34 35 37 39 40 41 41 41 41 41 40 40 40 39 39 38 38 38 38 37 37 38 37 36 36 36 35 35 35 36 36 36 36 37 37 38 38 37 37 37 37 37 37 37 38 38 38 38 38 39 39 39 39 39 39 40 40 41 41 41 40 40 40 40
34 34 34 35 35 35 35 36 38 39 39 39 40 40 41 41 40 40 39 39 39 39 39 38 37 36 36 35 35 34 34 34 34 34 34 34 34 34 34 35 36 37 39 40 40 40 40 41 41 41 39 39 40 40 39 39 39 38 38 37 37 37 37 36 36 36 36 36 36 36 37 37 37 37 37 37 36 36 36 37 37 37 38 38 38 38 38 39 39 40 40 41 41 41 41 41 41 41 41 40 40 40 40
34 34 34 34 35 35 35 36 38 39 40 40 40 41 41 41 40 40 39 39 39 39 39 37 36 36 35 35 35 34 34 34 34 34 34 34 34 34 35 36 37 39 39 40 39 38 39 40 41 41 40 40 40 40 40 39 38 38 37 37 37 36 36 36 36 36 36 35 36 36 36 36 36 36 36 36 36 36 36 37 37 38 38 38 38 38 39 40 41 41 41 42 42 42 42 42 41 41 41 40 40 40 40
33 33 34 34 34 35 35 35 36 38 39 41 42 43 42 40 38 38 38 38 38 38 37 37 36 35 35 35 35 35 35 35 35 35 35 34 34 34 35 37 38 39 40 40 41 41 41 41 40 39 39 38 38 37 37 37 37 36 36 36 36 36 36 36 35 35 34 34 35 35 36 36 36 36 36 36 36 36 37 37 38 38 39 39 39 39 39 39 41 41 41 42 42 43 42 41 41 41 41 40 40 40 41
33 33 33 34 34 34 34 34 34 35 35 35 35 36 36 35 35 36 37 37 38 37 37 36 35 35 35 35 35 35 35 35 35 35 35 34 34 35 36 37 38 39 39 40 40 40 39 38 37 37 36 36 36 36 36 35 35 35 35 35 35 35 35 35 35 35 33 34 35 36 36 36 36 36 36 37 37 38 38 39 39 39 40 40 40 39 39 39 39 41 42 42 42 41 40 40 41 41 41 41 41 42 43
33 33 33 33 33 33 34 34 34 34 34 34 34 34 34 34 35 36 37 37 37 37 36 36 35 35 35 35 35 35 35 36 36 36 35 34 34 35 35 36 36 37 37 37 37 37 37 36 36 35 35 35 35 35 36 36 36 37 37 36 35 34 34 34 35 34 34 34 34 36 36 36 36 37 36 37 38 38 39 39 39 40 39 39 39 38 38 38 39 41 42 42 41 40 41 41 40 41 41 41 42 43 43
32 32 32 33 33 33 34 34 34 34 34 34 34 34 35 36 36 37 37 37 37 37 36 36 35 35 35 35 35 35 35 35 35 35 34 34 34 34 34 34 34 34 34 34 35 35 35 35 35 35 35 35 35 35 36 36 38 41 41 39 38 35 34 34 34 34 33 33 34 36 36 36 36 37 36 36 36 36 37 38 37 38 37 37 37 37 37 37 39 40 41 41 41 41 40 40 41 41 41 42 42 42 42
32 32 32 32 32 33 34 34 34 34 34 34 35 36 36 36 37 37 36 36 36 36 36 35 35 35 35 34 34 35 35 35 35 34 34 34 34 33 33 33 33 32 32 32 33 33 33 34 34 34 34 34 35 36 36 36 37 39 39 38 37 35 34 34 34 33 33 34 34 35 35 34 35 35 34 34 34 35 35 35 35 35 35 35 35 35 36 37 37 39 40 40 40 40 41 41 40 40 40 40 40 39 39
31 32 32 32 32 33 34 34 34 35 35 36 36 36 36 36 36 36 36 35 35 35 35 34 34 34 34 34 34 34 34 35 34 34 33 33 33 33 32 33 33 32 32 32 32 32 32 32 32 33 33 34 34 36 35 35 35 36 36 35 34 34 34 33 33 33 33 34 34 33 33 33 33 33 33 33 34 34 34 34 34 34 34 34 34 34 35 35 36 37 38 39 39 39 39 39 38 38 37 37 37 37 38
31 31 32 33 33 34 35 35 35 35 36 36 36 36 36 35 35 35 35 34 34 34 34 34 34 34 34 34 34 34 34 34 34 33 33 33 32 32 32 32 32 32 32 32 32 32 33 33 32 32 33 33 34 34 33 34 34 34 33 33 33 33 33 33 32 32 32 32 32 32 32 32 32 32 32 32 32 32 32 33 33 33 33 33 33 34 34 34 35 35 36 36 36 36 36 36 36 36 35 35 35 36 36
31 32 33 34 34 35 36 36 36 36 36 35 35 35 35 35 34 34 34 34 34 34 34 34 34 34 33 33 33 33 33 34 34 33 33 32 32 32 32 32 32 32 32 32 32 32 33 33 32 33 33 33 33 33 33 33 33 32 32 32 32 32 32 32 32 31 31 31 31 31 31 31 31 31 31 31 31 30 31 31 31 32 32 32 33 33 33 34 34 34 34 34 34 34 34 34 35 35 34 34 34 35 35
32 33 34 35 36 36 36 36 36 35 35 34 34 34 34 34 34 34 34 34 34 33 33 33 33 33 33 32 32 32 33 33 33 33 33 33 32 32 32 32 32 32 32 32 32 32 33 32 32 32 32 32 32 32 31 31 31 31 31 31 31 32 32 32 32 31 31 31 31 31 31 31 31 30 30 30 30 30 30 31 31 31 32 32 32 32 33 33 34 34 34 33 33 34 34 34 34 34 34 34 34 34 35
34 35 35 36 36 36 36 35 35 34 34 34 33 33 33 32 33 33 33 33 33 32 32 32 32 32 32 31 31 32 32 32 33 33 33 33 33 33 32 32 32 32 32 32 32 32 32 32 32 32 31 31 31 30 30 30 29 30 30 30 31 33 33 32 32 32 32 32 32 31 31 30 30 30 29 29 29 30 30 30 31 31 31 32 32 32 33 33 33 33 33 33 33 33 33 34 33 33 33 33 33 34 34
36 36 36 36 36 35 35 34 34 34 33 32 32 31 31 31 31 31 31 31 31 31 31 31 31 31 30 30 30 30 31 31 32 33 33 33 33 33 33 33 33 33 32 32 32 32 32 31 31 31 31 30 30 30 29 28 28 28 30 31 32 33 33 33 33 32 32 32 32 31 30 30 29 29 29 28 29 29 30 30 31 31 31 31 31 32 32 33 33 33 33 32 32 32 32 32 32 32 31 31 31 31 31
37 36 36 35 35 34 34 34 33 32 32 31 31 30 30 30 30 30 30 30 30 30 29 29 29 29 29 28 28 29 29 29 30 31 32 33 33 33 33 33 33 33 33 32 32 32 31 31 31 30 30 30 29 29 29 29 28 29 30 32 34 34 34 33 33 32 32 32 31 30 30 29 28 28 28 28 28 29 30 30 31 31 31 31 31 31 31 32 32 32 32 31 31 31 31 31 31 30 30 30 30 30 30
36 36 35 35 34 34 33 32 32 31 30 30 30 30 30 29 29 29 28 28 28 27 27 26 26 26 26 25 25 25 26 26 27 28 29 30 31 32 32 33 33 33 33 33 32 32 31 31 30 30 30 30 29 29 29 29 29 30 31 33 34 34 34 33 33 32 32 31 31 30 29 28 28 28 28 28 28 29 30 30 30 31 30 30 30 30 30 30 30 30 31 31 31 31 31 30 30 30 30 30 29 29 29
36 35 35 34 34 33 32 31 30 30 30 29 29 28 28 28 27 26 26 25 25 25 24 24 24 23 23 23 23 22 23 23 24 24 25 26 27 28 29 30 31 31 32 32 32 32 32 32 31 31 31 32 32 33 32 31 31 31 33 34 34 34 34 33 32 31 31 30 30 29 28 28 28 28 28 28 29 29 30 30 30 30 30 30 29 29 29 29 29 29 30 30 30 30 30 30 30 30 29 29 28 28 27
35 35 34 34 33 32 31 30 30 29 28 28 27 27 26 25 25 24 24 23 22 22 21 21 21 21 20 20 20 20 21 21 21 21 22 23 24 24 25 26 27 28 29 30 30 31 32 32 33 33 34 35 36 36 35 35 35 35 35 35 34 34 33 31 30 30 30 29 29 29 28 28 28 28 28 28 29 29 30 30 30 30 30 29 28 28 27 27 27 28 28 29 30 30 30 30 30 29 29 28 27 26 26
35 34 34 33 32 31 30 29 29 28 27 26 25 25 25 24 23 22 21 21 20 19 19 19 19 18 18 18 18 18 20 20 20 20 21 22 22 23 23 23 24 24 25 25 25 26 28 30 31 33 35 36 36 37 36 37 37 38 38 37 35 34 32 30 30 30 29 29 28 27 28 28 28 28 28 29 29 30 30 30 29 29 29 28 27 27 27 27 27 27 27 28 29 29 29 29 29 28 27 26 25 25 24
34 34 33 32 30 30 29 28 27 26 25 25 24 24 23 22 21 20 19 18 18 17 16 17 17 17 17 17 18 18 19 19 20 21 21 22 22 23 23 22 22 22 22 21 21 21 23 25 27 30 32 34 34 35 35 36 36 38 39 38 36 34 32 31 30 30 30 29 28 27 28 28 29 29 29 29 29 29 29 29 29 28 28 27 27 27 27 27 27 27 27 28 28 28 28 28 27 27 25 25 24 23 22
34 33 31 30 29 28 27 26 25 25 24 23 23 22 21 20 19 18 17 16 16 15 15 15 16 16 16 17 17 18 19 20 21 21 22 22 22 22 22 21 21 21 20 20 20 21 21 22 24 25 27 29 30 33 34 35 36 38 39 39 36 34 33 33 32 31 31 30 29 28 28 28 29 29 29 29 29 29 29 29 28 28 27 27 27 27 27 27 27 27 27 27 27 28 27 26 25 25 23 22 21 21 21
32 31 29 28 27 26 25 25 24 24 23 22 21 20 19 18 17 16 15 14 13 13 13 14 14 16 16 17 17 18 19 20 21 21 21 21 21 21 21 20 20 20 20 20 20 21 21 22 23 24 25 25 26 27 31 34 37 39 39 38 35 34 34 34 34 33 32 30 30 29 29 29 29 30 29 29 29 29 29 29 29 28 28 27 27 27 27 27 27 26 26 27 27 27 26 25 24 22 21 20 19 19 19
30 28 27 26 25 25 24 24 23 22 22 21 20 18 16 15 14 13 12 12 12 12 12 13 15 16 16 17 17 18 19 20 20 20 20 20 20 20 20 20 20 20 20 20 21 21 22 22 23 23 24 24 24 25 30 34 38 40 39 37 35 35 35 35 35 34 33 31 30 30 30 30 30 30 30 30 30 29 29 29 29 29 28 28 27 26 26 25 25 25 25 25 26 26 25 23 21 19 19 19 19 19 19
28 26 25 25 25 24 23 23 22 21 21 19 17 15 13 12 11 11 11 11 11 12 12 13 15 16 16 16 17 18 18 19 19 19 19 19 19 19 19 20 20 20 20 21 21 22 22 22 23 23 23 23 24 25 30 35 39 39 37 35 34 35 36 36 36 35 34 32 31 30 30 30 30 30 30 30 29 29 29 28 28 27 27 25 25 23 23 23 24 24 24 25 25 25 22 20 18 19 19 19 19 19 19
26 25 25 25 24 23 23 22 21 20 19 17 15 13 12 11 10 10 10 11 11 12 12 13 15 16 16 16 17 18 18 18 18 18 19 19 19 19 20 20 21 21 21 21 22 22 22 22 22 22 23 24 25 29 34 37 38 37 35 34 34 35 37 37 36 35 34 33 32 31 31 30 30 30 29 28 27 27 26 25 25 24 22 22 22 23 25 27 27 26 26 25 25 23 21 19 19 20 20 20 19 19 19
25 25 25 25 24 23 23 21 20 18 19 18 16 13 12 11 10 10 11 12 12 12 13 14 14 15 16 16 16 17 17 17 18 19 19 19 20 20 21 21 21 21 22 22 22 22 22 22 22 22 24 27 31 35 37 38 37 35 33 33 34 36 37 36 36 35 33 31 30 30 30 30 29 28 27 26 25 24 23 22 21 21 21 21 23 25 31 33 33 30 28 25 23 21 20 20 20 21 20 20 19 18 18
25 25 25 25 24 23 23 21 19 17 17 17 17 16 12 11 11 12 12 12 13 13 14 14 15 15 16 16 16 17 17 18 18 19 20 21 21 21 22 22 22 22 22 22 22 21 21 21 21 24 29 33 36 38 38 38 36 34 35 35 36 37 37 36 35 32 30 30 30 28 28 27 26 25 25 24 23 21 20 20 20 20 21 21 24 29 32 34 34 32 29 26 23 21 21 21 21 21 20 19 18 17 17
25 25 24 24 23 22 21 20 18 15 15 14 13 14 12 12 12 13 13 14 14 14 15 15 15 15 16 16 17 17 18 19 20 21 21 22 22 22 22 22 22 22 22 21 21 21 21 21 24 29 34 37 38 38 37 37 36 37 38 38 38 37 37 35 32 29 28 29 30 27 25 24 24 23 23 22 21 21 20 20 20 21 21 22 25 31 33 33 32 31 29 27 25 23 22 21 21 20 19 19 18 17 16
25 24 23 22 21 21 19 17 16 13 12 12 13 13 13 13 13 14 14 14 15 15 15 15 16 16 16 17 18 19 20 21 22 22 23 23 23 22 22 22 21 21 21 21 21 21 23 25 29 34 37 38 38 37 37 37 37 38 38 38 38 37 35 33 30 28 28 28 28 27 25 24 23 23 23 22 21 20 20 21 21 21 21 23 27 32 33 33 31 30 29 28 26 25 23 21 21 20 19 18 17 17 16
24 23 22 21 20 19 16 14 13 13 13 13 13 13 13 14 14 14 14 15 15 15 15 16 16 16 17 19 20 21 22 23 23 23 23 22 22 21 21 21 21 21 21 21 23 25 28 30 34 37 38 38 38 38 37 37 37 37 38 37 37 36 33 31 29 28 28 28 28 27 26 25 24 23 22 22 21 20 20 20 21 21 21 24 28 34 33 32 31 30 29 29 28 26 23 21 21 20 19 18 18 17 17
23 21 20 19 17 16 14 13 14 13 13 13 13 14 14 14 14 15 15 15 15 16 16 16 17 18 20 21 22 23 23 23 22 22 21 21 21 20 20 21 21 21 22 24 27 30 33 34 36 38 38 38 38 38 38 38 38 38 37 37 36 34 31 30 29 28 28 27 27 26 25 25 23 23 22 21 21 19 19 20 21 21 21 23 27 33 32 31 30 30 30 29 29 28 25 22 21 20 19 19 18 18 17
21 20 19 17 16 15 14 14 14 14 14 14 14 14 15 15 15 15 15 16 16 16 16 17 19 21 22 23 23 23 22 22 21 20 20 20 20 21 21 21 22 23 25 28 32 34 36 37 38 39 39 38 38 38 38 38 37 37 37 36 34 32 30 29 29 29 27 26 26 25 24 23 22 22 22 21 20 20 20 21 21 21 21 22 26 32 32 31 30 30 30 30 29 29 25 23 21 21 20 19 19 18 17
20 19 18 17 16 15 15 14 14 14 14 15 15 15 15 15 16 16 16 16 16 17 18 20 22 23 24 24 23 22 21 21 20 20 20 20 21 22 23 24 25 25 29 32 35 37 37 38 39 39 38 38 38 38 38 38 37 37 36 34 33 30 30 29 28 28 26 25 25 24 23 22 22 22 21 21 21 21 21 21 21 21 21 23 27 31 32 31 31 30 30 30 30 30 26 23 21 21 20 19 19 18 17
20 18 17 16 16 15 15 15 15 15 15 15 15 16 16 16 16 17 16 16 17 18 21 22 24 24 23 23 22 21 20 20 20 20 21 22 23 24 25 26 28 29 32 35 37 38 38 38 38 38 38 38 38 38 38 37 36 35 34 32 31 30 29 28 27 25 24 23 22 22 22 22 22 22 21 21 22 22 22 22 21 21 20 24 29 30 31 31 31 30 30 30 30 29 26 23 21 21 20 19 18 17 17
19 18 18 17 16 15 15 15 15 15 16 16 16 16 16 16 16 16 16 16 18 21 23 24 24 23 23 22 21 21 21 21 21 22 23 25 26 27 28 29 30 32 34 37 38 38 38 38 38 38 38 38 38 37 36 34 34 32 31 30 30 29 28 26 25 23 22 22 22 22 23 22 22 22 22 22 22 23 22 22 22 21 20 25 30 30 30 31 31 30 30 30 30 29 26 23 21 20 20 19 18 17 17